CDT,Max TemperatureF,Mean TemperatureF,Min TemperatureF,Max Dew PointF,MeanDew PointF,Min DewpointF,Max Humidity, Mean Humidity, Min Humidity, Max Sea Level PressureIn, Mean Sea Level PressureIn, Min Sea Level PressureIn, Max VisibilityMiles, Mean VisibilityMiles, Min VisibilityMiles, Max Wind SpeedMPH, Mean Wind SpeedMPH, Max Gust SpeedMPH,PrecipitationIn, CloudCover, Events, WindDirDegrees
2013-9-1,90,79,67,74,69,66,100,80,59,29.83,29.81,29.77,10,9,6,20,7,24,0.02,2,Thunderstorm,233
2013-9-2,87,77,67,70,66,61,100,71,42,29.92,29.87,29.81,10,8,3,14,6,17,0.00,0,,310
2013-9-3,80,69,58,63,58,53,93,68,42,30.09,30.03,29.93,10,10,9,14,7,,0.00,1,,17
2013-9-4,83,69,54,63,57,53,100,70,40,30.17,30.13,30.08,10,7,0,8,2,14,0.00,0,Fog,1
2013-9-5,86,72,57,67,61,56,100,70,40,30.22,30.17,30.14,10,6,0,8,1,13,0.00,1,Fog,353
2013-9-6,87,75,62,68,64,62,100,73,45,30.20,30.14,30.07,10,6,2,7,2,9,0.00,0,,96
2013-9-7,89,75,61,70,65,61,100,72,43,30.09,30.05,29.95,9,4,0,15,4,20,0.00,0,Fog,180
2013-9-8,83,76,68,73,70,67,100,83,65,29.99,29.96,29.93,6,4,2,8,3,9,T,2,Rain,167
2013-9-9,96,83,69,74,70,67,100,71,42,30.00,29.97,29.93,6,4,2,15,7,20,0.00,2,,174
2013-9-10,94,84,73,75,73,68,94,72,50,30.12,30.07,30.00,6,4,2,15,6,25,T,1,Thunderstorm,196
2013-9-11,96,84,71,73,70,63,100,69,38,30.16,30.09,30.02,7,4,0,10,5,15,0.00,0,,201
2013-9-12,82,73,64,73,66,52,100,76,51,30.08,30.00,29.94,10,7,2,15,7,18,0.10,2,Rain,294
2013-9-13,74,63,52,56,50,46,93,66,38,30.12,30.08,30.02,10,10,9,20,10,23,0.00,2,,21
2013-9-14,74,61,48,51,46,42,93,63,33,30.19,30.13,30.08,10,10,9,10,5,,0.00,0,,62
2013-9-15,81,64,47,60,51,47,100,68,35,30.13,30.08,30.03,10,9,5,15,4,18,0.00,1,,201
2013-9-16,75,66,57,60,57,53,87,70,53,30.27,30.20,30.07,10,8,7,15,11,18,0.00,7,,32
2013-9-17,77,65,53,57,54,51,93,70,46,30.28,30.20,30.12,10,7,2,12,6,14,0.00,1,,80
2013-9-18,81,72,62,70,66,56,100,84,67,30.16,30.08,30.02,8,4,1,12,5,15,0.18,4,Rain,142
2013-9-19,90,79,67,72,69,66,100,77,53,30.06,30.01,29.92,6,4,2,17,8,21,0.00,1,,187
2013-9-20,79,72,64,72,69,62,100,85,69,29.94,29.89,29.84,10,5,2,17,8,21,0.28,6,Rain,233
2013-9-21,75,65,54,58,51,46,93,66,38,29.92,29.88,29.83,10,10,9,18,9,23,0.00,1,,328
2013-9-22,73,61,49,54,49,46,100,69,38,30.03,29.98,29.93,10,10,7,10,4,14,0.00,0,,28
2013-9-23,73,42,10,51,32,8,100,72,44,30.10,30.03,29.99,10,9,7,9,7,12,0.00,0,,76
2013-9-24,81,66,50,62,56,48,96,72,48,30.02,29.94,29.86,8,7,5,10,5,15,0.00,3,,94
2013-9-25,84,73,61,63,60,56,93,67,40,29.90,29.86,29.83,9,7,5,16,5,18,0.00,2,,63
2013-9-26,83,69,54,59,53,44,100,63,26,30.06,30.00,29.91,10,7,2,10,4,15,0.00,0,,38
2013-9-27,83,67,50,57,53,48,96,67,37,30.17,30.10,30.06,9,7,2,12,5,14,0.00,0,,96
2013-9-28,86,70,54,61,55,53,93,63,32,30.14,30.07,30.02,10,8,5,21,9,30,0.00,1,,157
2013-9-29,66,65,63,65,63,57,100,89,78,30.05,30.02,29.99,10,3,1,13,5,16,0.38,8,Rain,204
2013-9-30,74,67,59,65,63,59,100,84,68,30.02,29.99,29.94,9,4,1,12,5,14,0.00,7,,195